Regional Weather Roundup
Issued by NWS

Home | Current Version | Previous Version | Text Only | Print | Product List | Glossary On
Versions: 1 2 3 4 5 6 7 8 9 10 11 12 13 14 15 16 17 18 19 20 21 22 23 24 25 26 27 28 29 30 31 32 33 34 35 36 37 38 39 40 41 42 43 44 45 46 47 48 49 50
000
ASUS43 KTOP 251959
RWRKS

WEATHER ROUNDUP FOR KANSAS
NATIONAL WEATHER SERVICE GOODLAND KS
300 PM CDT MON MAY 25 2015

NOTE:  "FAIR" INDICATES FEW OR NO CLOUDS BELOW 12,000 FEET WITH NO
SIGNIFICANT WEATHER AND/OR OBSTRUCTIONS TO VISIBILITY.

KSZ001>006-013>018-027>032-041>047-252100-
NORTHWEST KANSAS

CITY           SKY/WX    TMP DP  RH WIND       PRES   REMARKS
GOODLAND       PTSUNNY   67  48  50 W12       29.88S
HAYS           MOSUNNY   70  55  60 S7        29.82F
HILL CITY      SUNNY     75  54  47 W6        29.81S
RUSSELL        MOSUNNY   75  61  61 S13       29.80F
$$

KSZ061>065-074>080-084>089-252100-
SOUTHWEST KANSAS

CITY           SKY/WX    TMP DP  RH WIND       PRES   REMARKS
DODGE CITY     PTSUNNY   74  57  55 SE7       29.84R
ELKHART          N/A     73  47  39 S8          N/A
GARDEN CITY    MOSUNNY   72  51  47 VRB6      29.83F
GREAT BEND     MOSUNNY   75  64  69 SW9       29.80F
LIBERAL        PTSUNNY   73  54  49 S12       29.87F
$$

KSZ066>073-081>083-090>101-252100-
SOUTHEAST KANSAS

CITY           SKY/WX    TMP DP  RH WIND       PRES   REMARKS
CHANUTE        MOSUNNY   80  67  64 S21       29.89S
COFFEYVILLE    MOSUNNY   81  68  64 S15G22    29.89F
HUTCHINSON     PTSUNNY   83  66  56 S18       29.78F
NEWTON         CLOUDY    75  64  69 S15       29.84S
PARSONS        MOSUNNY   80  67  64 S17G25    29.90F
WICHITA INTL   PTSUNNY   76  67  73 S20G30    29.81R THUNDER
WICHITA JABRA  PTSUNNY   76  66  71 S20G29    29.81F
WINFIELD       CLOUDY    76  66  71 S17       29.85F
$$

KSZ007>012-019>026-033>040-048>060-102>105-252100-
NORTHEAST KANSAS

CITY           SKY/WX    TMP DP  RH WIND       PRES   REMARKS
CONCORDIA      PTSUNNY   74  62  66 S14       29.81S
EMPORIA        MOSUNNY   80  66  62 S26G35    29.83S
LAWRENCE       PTSUNNY   79  65  62 S25G31    29.85F
MANHATTAN      PTSUNNY   81  68  64 S13G28    29.79F
OLATHE IND     PTSUNNY   78  66  66 S15G25    29.89F
OLATHE EXE     PTSUNNY   77  66  68 S16G24    29.88F
SALINA         PTSUNNY   78  67  68 S6        29.79F
TOPEKA BILLARD PTSUNNY   79  67  66 S16G25    29.84F
TOPEKA FORBES  PTSUNNY   80  66  62 S24G31    29.83F
$$



USA.gov is the U.S. government's official web portal to all federal, state and local government web resources and services.